[[{"header":{"parameterUnit":"m.s-1","parameterCategory":1,"la1":30.2991,"la2":30.254,"lo1":-89.0895,"lo2":-89.0444,"dy":0.0017,"dx":0.0017,"nx":28,"ny":28,"refTime":"2025-06-04T09:00:00:Z","depth":0,"parameterNumber":2,"parameterNumberName":"U-component_of_WINDS"},"data":[0,0,0,0,0,0,0,0,0,0,0,0,0,0,0,0,0,0,0,0,0,0,0,0,0,0,0,0,0,0,0,0,0,0,0,0,0,0,0,0,0,0,0,0,0,0,0,0,0,0,0,0,0,0,0,0,0,0,2.2073,2.2073,0,2.2064,2.2064,2.2064,2.1979,2.1977,2.1975,2.1973,2.1966,2.1968,2.1969,0,0,0,0,0,0,0,0,0,0,0,0,0,2.2017,2.2018,2.2073,2.2073,2.2073,2.2064,2.2064,2.2064,2.1979,2.1977,2.1974,2.1972,2.1965,2.1967,2.1969,0,0,0,0,0,0,0,0,0,0,0,0,0,2.2028,2.2019,2.2073,2.2029,2.2025,2.2064,2.2064,2.2064,2.198,2.1977,2.1974,2.1971,2.1964,2.1967,2.197,2.205,0,0,2.1978,2.1979,0,0,0,0,0,0,0,0,2.2028,2.203,2.2036,2.2033,2.2028,2.2019,2.2042,2.206,2.1981,2.1997,2.1973,2.1969,2.1986,2.1987,2.1992,2.205,2.205,2.1978,2.198,2.1981,2.1982,0,0,0,0,0,0,0,2.2027,2.203,2.207,2.2036,2.2031,2.2011,2.2009,2.2045,2.201,2.1996,2.1989,2.199,2.1984,2.199,2.1992,2.205,2.1978,2.1981,2.1982,2.1983,2.217,2.2174,0,0,0,0,0,0,2.2032,2.203,2.207,2.2069,2.202,2.2014,2.2012,2.2026,2.2009,2.2004,2.1992,2.1986,2.1987,2.1989,2.1991,2.2082,2.1981,2.1984,2.1985,2.2167,2.2171,2.2175,0,0,0,0,0,0,2.2031,2.2036,2.207,2.2048,2.2051,2.2019,2.2034,2.2027,2.2033,2.2007,2.2,2.2005,2.1985,2.1987,2.2036,2.2081,2.1985,2.1987,2.2163,2.2168,2.2173,2.2267,0,0,0,0,0,0,2.203,2.2037,2.2067,2.2049,2.2052,2.2115,2.2037,2.2029,2.2038,2.2029,2.2017,2.2012,2.1982,2.2032,2.2038,2.2083,2.1989,2.2159,2.2165,2.2171,2.226,2.2275,2.2287,0,0,0,0,0,2.2028,2.2095,2.2069,2.2074,2.2089,2.2118,2.2119,2.2083,2.2042,2.2072,2.2055,2.2012,2.2076,2.2038,2.2044,2.209,2.2156,2.2164,2.2171,2.2253,2.2272,2.2287,0,0,0,0,0,0,2.2119,2.2091,2.2063,2.2125,2.2124,2.2103,2.214,2.2104,2.2115,2.2107,2.2062,2.206,2.2115,2.2108,2.2066,2.2166,2.2108,2.2117,2.2169,2.2186,2.22,2.2199,2.1992,0,0,0,0,0,2.2146,2.2171,2.2146,2.2204,2.2205,2.2173,2.2184,2.2156,2.2153,2.2153,2.2139,2.2139,2.2158,2.2172,2.2188,2.2259,2.2254,2.2294,2.2307,2.2319,2.2327,2.2362,2.2378,2.22,2.22,2.2199,0,0,2.2203,2.2191,2.221,2.2222,2.2218,2.2244,2.2173,2.2205,2.2224,2.2158,2.2201,2.2192,2.2188,2.2247,2.2273,2.2243,2.2375,2.2329,2.2338,2.234,2.2371,2.2388,2.2403,2.2205,2.2204,2.2203,0,0,2.2319,2.2314,2.236,2.2357,2.2351,2.2329,2.2341,2.2325,2.2315,2.2359,2.2309,2.2332,2.2367,2.2365,2.237,2.2485,2.2446,2.2492,2.2563,2.2598,2.2612,2.2624,2.2663,2.2678,2.25,2.25,2.25,0,2.239,2.2428,2.2388,2.2422,2.2428,2.2369,2.2415,2.2415,2.2416,2.2421,2.2388,2.2429,2.2423,2.248,2.2508,2.2514,2.2524,2.2492,2.2613,2.2625,2.2636,2.2673,2.2688,2.2506,2.2505,2.2504,2.2504,0,2.2515,2.2542,2.258,2.258,2.2591,2.2632,2.2597,2.2613,2.2585,2.2566,2.2611,2.2601,2.2613,2.2625,2.2599,2.2678,2.266,2.2621,2.2561,2.2659,2.2693,2.2707,2.2513,2.2511,2.251,2.2508,0,0,2.2688,2.2665,2.2679,2.2678,2.2667,2.2687,2.2725,2.2736,2.275,2.2753,2.2782,2.2813,2.2776,2.278,2.2753,2.2783,2.2873,2.274,2.2739,2.2763,2.2958,2.2986,2.3003,2.2847,2.285,2.2852,2.2958,0,2.2798,2.2859,2.2824,2.289,2.2914,2.2858,2.289,2.2887,2.2871,2.2889,2.2871,2.2893,2.2843,2.2846,2.2873,2.2856,2.2911,2.2848,2.2874,2.2875,2.2874,2.3021,2.3051,2.3152,2.2971,2.2973,2.2975,0,2.2934,2.2941,2.3009,2.2992,2.3001,2.3031,2.3037,2.3056,2.3051,2.3037,2.3042,2.3007,2.3042,2.2984,2.3032,2.299,2.2998,2.2991,2.2994,2.2994,2.293,2.3023,2.3183,2.3197,2.2996,2.2994,2.2993,0,2.305,2.3077,2.3121,2.3122,2.3104,2.3126,2.3119,2.3111,2.312,2.3127,2.3131,2.3143,2.3149,2.3158,2.3127,2.3088,2.3178,2.3118,2.3166,2.3167,2.3186,2.3185,2.3348,2.3196,2.3195,2.3195,2.3195,0,2.3176,2.3219,2.3172,2.3199,2.3246,2.3206,2.3253,2.3241,2.3234,2.3258,2.3211,2.3234,2.3192,2.3211,2.3187,2.3229,2.3232,2.3222,2.3214,2.3225,2.3226,2.3228,2.322,2.3199,2.3198,2.3197,2.3197,0,2.3313,2.3283,2.3327,2.3306,2.3302,2.3337,2.3319,2.3343,2.3324,2.3354,2.3359,2.3329,2.3348,2.3318,2.3335,2.3319,2.3376,2.3359,2.3377,2.3371,2.3421,2.3416,2.3589,2.3609,2.3446,2.3448,2.3449,0,2.3394,2.3426,2.3408,2.3419,2.3415,2.3435,2.3443,2.3405,2.3415,2.3412,2.3436,2.3452,2.3462,2.3496,2.3476,2.3488,2.347,2.353,2.3471,2.348,2.3468,2.3466,2.3468,2.3541,2.3543,2.3545,2.3546,0,2.354,2.3523,2.3536,2.3544,2.3555,2.356,2.3561,2.3574,2.3533,2.3547,2.3566,2.3574,2.359,2.3606,2.3613,2.3607,2.357,2.3565,2.3576,2.3586,2.3595,2.3589,2.3408,2.3561,2.3559,2.3558,2.3557,2.3557,2.3649,2.3674,2.3665,2.3681,2.3677,2.368,2.37,2.3683,2.3698,2.3707,2.3684,2.3709,2.3702,2.3708,2.3706,2.3724,2.3698,2.3715,2.3719,2.3723,2.373,2.3593,2.3726,2.3725,2.3725,2.3724,2.3724,0,2.3791,2.3782,2.3797,2.3799,2.3812,2.3776,2.3775,2.3788,2.3809,2.3806,2.3817,2.3838,2.3853,2.3834,2.3846,2.3864,2.3847,2.3868,2.3865,2.3864,2.3754,2.3742,2.3881,2.3881,2.3881,2.3881,2.3881,2.3881,2.3865,2.3905,2.3887,2.3925,2.3916,2.3938,2.3941,2.3942,2.3939,2.3965,2.3977,2.3964,2.3954,2.3965,2.3977,2.3971,2.3976,2.4003,2.3991,2.3888,2.3872,2.3857,2.3846,2.4005,2.4005,2.4099,2.41,2.4101]},{"header":{"parameterUnit":"m.s-1","parameterCategory":1,"la1":30.2991,"la2":30.254,"lo1":-89.0895,"lo2":-89.0444,"dy":0.0017,"dx":0.0017,"nx":28,"ny":28,"refTime":"2025-06-04T09:00:00:Z","depth":0,"parameterNumber":3,"parameterNumberName":"V-component_of_WINDS"},"data":[0,0,0,0,0,0,0,0,0,0,0,0,0,0,0,0,0,0,0,0,0,0,0,0,0,0,0,0,0,0,0,0,0,0,0,0,0,0,0,0,0,0,0,0,0,0,0,0,0,0,0,0,0,0,0,0,0,0,4.7856,4.7858,0,4.7997,4.7998,4.8,4.7984,4.7982,4.798,4.7977,4.8115,4.8121,4.8126,0,0,0,0,0,0,0,0,0,0,0,0,0,4.7567,4.7573,4.7856,4.7858,4.786,4.7996,4.7998,4.8,4.7984,4.7982,4.7979,4.7976,4.8113,4.812,4.8127,0,0,0,0,0,0,0,0,0,0,0,0,0,4.7699,4.7575,4.7856,4.7868,4.7871,4.7996,4.7998,4.8001,4.7985,4.7982,4.7978,4.7975,4.8111,4.8119,4.8128,4.8247,0,0,4.8154,4.8158,0,0,0,0,0,0,0,0,4.7691,4.7709,4.7865,4.7868,4.7871,4.797,4.7947,4.8083,4.7986,4.7941,4.7977,4.7974,4.8069,4.8081,4.8114,4.8254,4.826,4.8155,4.816,4.8164,4.8166,0,0,0,0,0,0,0,4.7682,4.7703,4.7912,4.7867,4.7871,4.7865,4.788,4.7973,4.8022,4.7945,4.7944,4.7961,4.807,4.8106,4.8117,4.8262,4.8154,4.8162,4.8167,4.8171,4.8504,4.8508,0,0,0,0,0,0,4.7671,4.7696,4.7907,4.7916,4.7771,4.7873,4.7889,4.7941,4.8021,4.803,4.7964,4.796,4.8093,4.8107,4.8122,4.8266,4.8164,4.8172,4.8177,4.8501,4.8505,4.8509,0,0,0,0,0,0,4.7665,4.769,4.7901,4.7806,4.7832,4.7881,4.7939,4.7946,4.7982,4.8036,4.8043,4.7993,4.8091,4.811,4.8216,4.8271,4.8176,4.8183,4.8496,4.8502,4.8507,4.8556,0,0,0,0,0,0,4.7657,4.7688,4.7736,4.7807,4.7837,4.7996,4.7943,4.7951,4.7997,4.7994,4.8064,4.8073,4.809,4.8204,4.8225,4.8281,4.819,4.8492,4.8499,4.8505,4.855,4.8562,4.8573,0,0,0,0,0,4.7646,4.7743,4.7738,4.7764,4.7898,4.7999,4.8016,4.8036,4.8002,4.8049,4.8083,4.807,4.8262,4.8215,4.8238,4.8298,4.8488,4.8497,4.8505,4.8544,4.856,4.8573,0,0,0,0,0,0,4.7675,4.7752,4.7748,4.7871,4.7929,4.7996,4.8056,4.8052,4.8119,4.8112,4.8131,4.8147,4.8255,4.8287,4.8233,4.8417,4.837,4.8383,4.8392,4.8407,4.8419,4.8408,4.8197,0,0,0,0,0,4.7696,4.7773,4.7836,4.7938,4.7967,4.8007,4.8051,4.8062,4.8121,4.8145,4.8187,4.8244,4.8316,4.8363,4.8433,4.8554,4.8568,4.8607,4.8619,4.8628,4.8639,4.8703,4.872,4.8537,4.8536,4.8536,0,0,4.7739,4.7791,4.7838,4.7945,4.7991,4.8068,4.8027,4.8111,4.8168,4.8157,4.826,4.8293,4.8357,4.8471,4.8523,4.8501,4.8693,4.8639,4.8646,4.8652,4.8713,4.8731,4.8746,4.8542,4.8541,4.854,0,0,4.7857,4.7905,4.7995,4.8042,4.8112,4.8138,4.8159,4.8228,4.825,4.8354,4.8347,4.8413,4.8539,4.8585,4.8624,4.8759,4.8748,4.8781,4.8842,4.8904,4.8919,4.8932,4.8978,4.8994,4.8792,4.8792,4.8792,0,4.7901,4.8019,4.8041,4.8126,4.8172,4.8167,4.8257,4.8301,4.839,4.842,4.8395,4.8552,4.8595,4.8718,4.8751,4.8784,4.8807,4.8772,4.8915,4.8929,4.8941,4.8985,4.9002,4.8795,4.8795,4.8794,4.8794,0,4.8069,4.8151,4.8214,4.8302,4.8356,4.8442,4.8475,4.8526,4.8531,4.8558,4.8663,4.8715,4.8794,4.8825,4.883,4.8949,4.8933,4.8911,4.8864,4.8961,4.9003,4.902,4.88,4.8799,4.8798,4.8797,0,0,4.8208,4.8307,4.833,4.8369,4.8446,4.8509,4.8594,4.8674,4.8716,4.8777,4.8848,4.8954,4.8934,4.8979,4.899,4.9045,4.9146,4.9016,4.9018,4.9037,4.9277,4.9291,4.931,4.914,4.9143,4.9146,4.9271,0,4.8332,4.8486,4.8507,4.8642,4.8716,4.8713,4.8787,4.8841,4.8869,4.8934,4.8964,4.9038,4.9008,4.9035,4.9089,4.9122,4.9193,4.9113,4.9203,4.9206,4.9186,4.9332,4.9348,4.9464,4.9287,4.929,4.9292,0,4.8498,4.8565,4.8708,4.8774,4.8806,4.8872,4.8946,4.901,4.907,4.9086,4.9136,4.914,4.9225,4.9176,4.9293,4.9238,4.9276,4.9297,4.9302,4.931,4.9254,4.9342,4.9501,4.9518,4.9318,4.9316,4.9314,0,4.8583,4.8709,4.881,4.8844,4.8924,4.897,4.9006,4.9063,4.9109,4.9173,4.9202,4.9275,4.9314,4.9369,4.9391,4.9353,4.9506,4.9459,4.9519,4.9519,4.955,4.9548,4.9715,4.9578,4.9577,4.9577,4.9577,0,4.8718,4.8805,4.8849,4.8911,4.9008,4.903,4.9124,4.9157,4.9208,4.9275,4.9276,4.9338,4.9364,4.9429,4.9447,4.9539,4.9557,4.9571,4.9574,4.957,4.9568,4.9594,4.9586,4.9582,4.9581,4.958,4.9579,0,4.8829,4.8863,4.8972,4.9039,4.9058,4.9126,4.9182,4.9241,4.9268,4.9352,4.9373,4.9415,4.9492,4.952,4.9613,4.9624,4.9731,4.9729,4.9712,4.9712,4.977,4.9764,4.9959,4.9985,4.9831,4.9833,4.9834,0,4.8912,4.8979,4.9054,4.9099,4.9137,4.921,4.9257,4.9282,4.933,4.9404,4.9453,4.953,4.9593,4.9715,4.9753,4.9823,4.9821,4.9885,4.9831,4.9825,4.982,4.9815,4.9821,4.9894,4.9896,4.9897,4.9898,0,4.9056,4.9069,4.9139,4.9214,4.9271,4.9331,4.9388,4.9425,4.9458,4.9512,4.9592,4.9641,4.9736,4.9811,4.9884,4.9917,4.9912,4.9915,4.9932,4.9928,4.9914,4.992,4.9737,4.991,4.9908,4.9908,4.9907,4.9906,4.9155,4.9213,4.9275,4.9351,4.9398,4.9452,4.951,4.9545,4.9613,4.9694,4.9703,4.9788,4.9845,4.9942,4.9979,5.0044,5.0026,5.0052,5.0058,5.0063,5.0067,4.9905,5.0057,5.0057,5.0057,5.0056,5.0056,0,4.9297,4.9336,4.9407,4.9488,4.9548,4.9541,4.9604,4.9654,4.9729,4.9784,4.9846,4.9936,5.0009,5.0053,5.0125,5.0169,5.0168,5.0187,5.0183,5.019,5.0079,5.0056,5.0186,5.0186,5.0186,5.0186,5.0186,5.0186,4.9378,4.9476,4.9497,4.9617,4.9655,4.974,4.9777,4.9825,4.9869,4.9971,5.0032,5.0061,5.011,5.0186,5.0252,5.0262,5.0288,5.0308,5.0317,5.0212,5.0198,5.0186,5.0164,5.0314,5.0314,5.0422,5.0423,5.0424]}]]